Location: Newark
(34.5992°S, 58.3747°W)
Time: 07:18:20
(UTC+00:00)

STARLINK 1064 - Pass Details

Date: 08 December 2019
Orbit: 549 x 551 km, 53.0° (Epoch: 17 January)

Event Time Altitude Azimuth Distance (km) Brightness Sun altitude
Rises 23:57:31 0° 236° (SW) 2,742 9.4 -11.3°
Reaches altitude 10° 23:59:57 10° 246° (WSW) 1,840 7.7 -11.7°
Maximum altitude 00:03:38 31° 308° (NW) 993 5.0 -12.3°
Enters shadow 00:07:00 12° 8° (N) 1,716 5.7 -12.8°
